EHI
4 3 2 2 2 1 0 0 0 0 0 0 0 0 0 0 2 3 2 3 3 1 1 2 2 1 1 0 0 0 0 0 0 0 0 0 0 0 0 0 0 0 0
5 4 2 2 2 1 0 0 0 0 0 0 0 0 0 0 1 3 2 2 1 1 2 2 1 1 1 0 0 0 0 0 0 0 0 0 0 0 0 0 0 0 0
7 5 4 3 2 1 0 0 0 0 0 0 0 0 0 0 1 2 1 0 0 1 2 2 2 2 1 0 0 0 1 0 0 0 0 0 0 0 0 0 0 0 0
7 7 5 4 3 2 1 0 0 0 0 0 0 0 0 0 0 0 0 0 0 0 1 2 2 1 0 0 0 0 0 0 0 0 0 0 0 0 0 0 0 0 0
6 8 8 6 4 3 2 1 0 0 0 0 0 0 0 0 0 0 0 0 0 0 0 1 1 0 0 0 0 0 0 0 0 0 0 0 0 0 0 0 0 0 0
7 9 12 10 6 3 1 1 0 0 0 0 0 0 0 0 0 0 0 0 0 0 0 0 0 0 0 0 0 0 0 0 0 0 0 0 0 0 0 0 0 0 0
8 9 11 11 8 4 2 1 1 0 0 0 0 0 0 0 0 0 0 0 0 0 0 0 0 0 0 0 0 1 0 0 0 0 0 1 1 1 0 0 0 0 0
6 7 8 9 9 7 4 1 1 0 0 0 0 0 0 0 0 0 0 0 0 0 0 0 0 0 0 0 0 0 0 0 0 0 0 1 1 1 0 0 0 0 0
5 6 6 7 8 8 5 2 1 1 0 0 0 0 0 0 0 0 0 0 0 0 0 0 0 0 0 0 0 0 0 0 0 0 0 0 0 0 0 0 0 0 0
5 6 6 7 7 6 4 2 1 1 1 0 0 0 0 0 0 0 0 0 0 0 0 0 0 0 0 0 0 0 0 0 0 0 0 0 0 0 0 0 0 0 0
5 5 6 6 5 4 3 2 2 2 1 0 0 0 0 0 0 0 0 0 0 0 0 0 0 0 0 0 0 0 0 0 0 1 0 0 0 0 0 0 0 0 0
4 5 5 4 3 2 2 3 3 3 1 0 0 0 0 0 0 0 0 0 0 0 0 0 0 0 0 0 0 0 0 0 0 0 0 0 0 0 0 0 0 0 0
4 3 2 2 1 1 1 2 3 3 1 0 0 0 0 0 0 0 0 0 0 0 0 0 0 0 0 0 0 0 0 0 0 0 0 0 0 0 0 0 0 0 0
3 2 1 1 0 0 0 1 2 3 2 1 0 0 0 0 0 0 0 0 0 0 0 0 0 0 0 0 0 0 0 0 0 0 0 0 0 0 0 0 0 0 0
2 1 2 2 1 1 1 0 1 2 3 2 1 0 0 0 0 0 0 0 0 0 0 0 0 0 0 0 0 0 0 0 0 0 0 0 0 0 0 0 0 0 0
1 1 2 2 2 2 1 1 1 3 3 2 1 0 0 0 0 0 0 0 0 0 0 0 0 0 0 0 0 0 0 0 0 0 0 0 0 0 0 0 0 0 0
0 0 1 1 1 1 1 1 2 3 3 2 1 0 0 0 0 0 0 0 0 0 0 0 0 0 0 0 0 0 0 0 0 0 0 0 0 0 0 0 0 0 0
0 0 0 0 0 0 0 1 1 2 2 1 0 0 0 0 0 0 0 0 0 0 0 0 0 0 0 0 0 0 0 0 0 0 0 0 0 0 0 0 0 0 0
0 0 0 0 0 0 0 0 0 1 1 1 0 0 0 0 0 0 0 0 0 0 0 0 0 0 0 0 0 0 0 0 0 0 0 0 0 0 0 0 0 0 0
0 0 0 0 0 0 0 0 0 0 0 0 0 0 0 0 0 0 0 0 0 0 0 0 0 0 0 0 0 0 0 0 0 0 0 0 0 0 0 0 0 0 0
0 0 0 0 0 0 0 0 0 0 0 0 0 0 0 0 0 0 0 0 0 0 0 0 0 0 0 0 0 0 0 0 0 0 0 0 0 0 0 0 0 0 0
0 0 0 0 0 0 0 0 0 0 0 0 0 0 0 0 0 0 0 0 0 0 0 0 0 0 0 0 0 0 0 0 0 0 0 0 0 0 0 0 0 0 0
0 0 0 0 0 0 0 0 0 0 0 0 0 0 0 0 0 0 0 0 0 0 0 0 0 0 0 0 0 0 0 0 0 0 0 0 0 0 0 0 0 0 0
0 0 0 0 0 0 0 0 0 0 0 0 0 0 0 0 0 0 0 0 0 0 0 0 0 0 0 0 0 0 0 0 0 0 0 0 0 0 0 0 0 0 0
0 0 0 0 0 0 0 0 0 0 0 0 0 0 0 0 0 0 0 0 0 0 0 0 0 0 0 0 0 0 0 0 0 0 0 0 0 0 0 0 0 0 0
0 0 0 0 0 0 0 0 0 0 0 0 0 0 0 0 0 0 0 0 0 0 0 0 0 0 0 0 0 0 0 0 0 0 0 0 0 0 0 0 0 0 0
Wind_Speed
4 3 3 4 5 5 6 4 6 7 6 5 4 5 5 5 5 6 6 10 9 7 6 6 7 6 6 6 6 6 6 6 6 6 7 7 7 7 6 6 6 5 5
4 3 3 3 3 3 5 5 6 4 3 2 2 2 2 3 4 8 7 7 9 8 6 7 7 7 7 6 6 6 6 6 6 6 6 6 6 6 6 5 4 4 4
4 4 3 3 3 3 4 4 5 4 3 3 3 3 2 2 3 7 9 7 6 8 8 7 7 7 7 7 6 7 7 6 6 6 6 6 5 5 5 4 4 3 2
4 3 3 2 2 2 2 2 2 2 2 2 3 3 3 3 3 4 7 8 7 7 7 9 8 7 7 7 7 7 7 7 6 6 6 6 6 5 4 4 3 3 2
5 3 3 3 2 2 1 2 2 2 2 2 3 3 3 4 4 4 5 7 8 8 7 9 10 9 8 7 7 7 8 8 7 7 6 6 6 5 5 4 4 3 3
5 4 3 4 4 2 2 1 1 1 1 1 3 3 3 3 3 4 4 3 7 9 10 9 7 7 9 9 8 8 8 8 8 8 7 7 6 5 5 5 4 4 3
4 4 4 4 4 4 4 3 2 2 2 1 1 2 1 3 4 4 3 2 4 6 10 10 8 7 6 9 9 9 9 8 8 8 8 7 7 6 5 5 4 4 4
4 4 4 4 4 4 5 4 3 2 2 2 1 1 1 2 2 3 3 3 3 4 7 9 8 9 8 6 8 11 9 8 8 8 8 7 7 6 6 5 4 4 4
5 5 5 5 5 5 5 6 5 5 3 2 2 2 3 3 2 2 3 3 3 2 3 4 6 8 10 8 8 11 11 9 8 9 8 7 7 6 6 5 5 4 4
5 5 5 6 5 5 6 6 6 5 5 4 3 3 3 2 2 1 2 2 2 3 3 3 3 4 6 7 9 13 14 12 10 9 9 8 7 7 6 5 5 4 4
4 4 5 5 6 5 6 6 6 6 5 5 4 3 3 2 2 2 2 2 1 1 0 1 1 1 3 5 7 10 14 13 11 10 9 9 9 8 7 6 5 4 4
2 2 3 4 4 4 6 6 7 7 6 7 5 4 4 3 3 3 2 2 1 2 1 1 0 1 2 4 7 13 13 12 11 10 9 8 9 9 8 7 6 5 4
2 2 2 2 3 4 4 5 6 6 7 7 6 5 4 4 3 3 3 2 2 1 0 0 1 1 1 2 5 12 12 12 11 10 9 8 8 8 8 8 7 6 5
2 2 2 1 2 2 2 3 3 4 5 6 6 6 4 4 3 3 3 3 2 1 1 1 1 1 1 2 4 6 6 10 10 10 9 8 8 7 7 7 6 6 5
3 3 2 2 1 1 1 1 1 2 3 4 4 4 4 3 3 3 3 3 4 3 2 1 1 0 1 2 4 3 3 9 10 9 9 8 8 7 7 6 5 4 3
6 6 5 4 3 3 2 2 1 1 1 2 3 4 4 3 3 3 3 3 3 3 3 2 2 2 1 1 3 1 2 7 9 9 8 8 7 7 7 6 5 5 4
7 7 6 6 5 5 4 3 2 1 1 2 2 3 3 3 3 3 3 3 3 3 3 1 1 2 2 1 1 1 2 3 4 7 7 7 7 6 6 5 5 4 4
7 7 7 7 7 6 5 4 3 2 2 1 2 2 3 3 3 3 3 4 3 3 3 3 1 1 2 2 2 1 1 3 3 7 7 7 6 5 4 3 3 3 3
9 8 8 8 8 7 7 6 5 4 3 2 1 2 3 3 3 2 3 3 3 3 3 3 2 1 1 1 1 1 1 1 3 5 6 5 5 5 4 4 3 2 2
9 9 9 8 8 8 9 8 6 4 4 3 3 3 2 2 2 3 3 3 3 3 3 3 2 2 1 1 2 2 1 1 2 4 5 6 7 8 8 7 6 4 3
9 8 9 9 8 7 9 9 7 5 4 4 4 4 4 5 4 3 3 3 4 3 3 3 2 2 2 2 2 2 3 3 3 3 4 4 5 5 6 7 8 7 6
8 7 8 8 9 8 12 13 9 5 4 4 4 4 4 5 6 6 7 6 5 3 3 3 2 3 2 2 2 2 3 3 2 2 5 5 6 6 5 5 7 9 8
7 7 7 7 7 10 15 15 13 5 4 5 5 4 4 5 6 4 7 8 7 6 3 3 4 3 3 2 3 3 3 3 4 3 5 5 5 6 5 7 10 11 10
5 5 6 7 6 11 16 15 13 5 5 6 6 5 5 5 5 5 5 7 7 7 5 4 5 4 4 2 3 4 5 5 5 3 4 4 3 4 5 5 11 12 12
4 5 5 6 7 9 15 16 12 4 4 5 6 7 6 5 8 7 5 6 6 5 8 11 10 8 9 8 5 4 4 5 4 2 2 4 3 3 3 3 6 11 12
3 3 4 5 6 7 13 16 13 4 5 4 5 6 9 8 7 6 4 5 6 4 4 5 5 5 5 6 7 4 3 5 4 3 2 3 3 3 3 2 2 3 5
Wind_Direction
212 225 220 188 189 190 189 206 221 227 222 227 214 207 185 181 159 137 142 152 150 154 161 162 158 156 156 151 148 145 142 140 136 132 132 130 129 126 123 119 114 112 106
205 215 230 214 201 200 181 190 222 242 229 227 236 229 190 177 159 141 148 156 160 160 165 170 166 161 161 160 160 156 155 154 150 147 146 143 139 138 135 132 130 123 116
212 220 222 223 212 215 209 193 222 226 213 209 208 231 210 194 176 157 152 160 165 170 170 169 169 169 170 170 168 166 163 164 163 161 159 158 155 153 152 153 151 146 137
218 212 221 228 237 233 225 189 216 214 221 210 206 207 204 178 210 175 161 165 167 170 176 175 173 176 178 179 178 175 173 170 171 172 170 169 171 172 175 176 174 170 167
238 213 211 209 230 252 240 221 194 202 223 224 228 210 202 177 196 200 195 180 165 162 167 176 176 178 182 184 184 183 180 178 178 180 180 179 182 186 191 190 192 197 200
240 226 208 202 208 216 230 250 202 207 223 232 246 227 202 182 186 196 221 183 165 170 163 166 171 185 189 186 187 187 184 184 185 187 188 187 189 193 195 200 207 210 216
233 223 214 204 205 203 204 216 216 214 224 249 269 289 259 210 203 193 205 198 190 175 158 169 177 174 183 190 187 188 189 187 186 189 190 190 189 192 198 203 208 217 225
233 227 212 205 203 204 205 203 199 202 207 205 187 212 275 300 272 207 186 196 221 181 170 177 180 173 174 172 190 188 187 187 189 189 189 186 186 190 195 201 209 221 230
230 224 215 207 203 198 201 200 194 189 198 208 199 175 173 210 256 277 217 200 209 191 185 194 190 179 173 172 173 186 181 181 188 189 187 183 182 185 190 199 208 216 223
233 220 213 211 209 200 198 203 198 190 186 199 214 215 206 173 165 258 280 232 214 204 196 199 198 179 166 160 167 176 177 177 183 187 186 184 183 183 187 195 203 208 210
245 225 214 211 212 208 201 200 195 195 194 195 196 195 214 219 186 175 242 282 304 262 241 194 174 143 139 143 156 171 175 175 181 187 192 190 189 190 191 191 194 201 207
278 253 226 216 213 207 205 205 201 201 201 201 198 193 185 188 190 183 198 211 235 272 313 347 16 133 131 135 153 165 174 178 182 187 194 196 197 196 195 193 198 204 206
311 294 257 221 215 213 206 199 198 203 204 202 199 200 194 195 182 174 179 196 210 236 132 7 1 30 73 108 138 161 176 182 185 189 194 198 200 200 200 198 202 209 210
327 320 304 258 202 194 201 196 194 204 194 196 205 199 193 195 187 183 177 171 181 226 231 221 50 49 57 90 132 161 180 186 187 192 197 199 201 203 204 205 210 216 218
356 7 18 31 49 110 118 137 171 194 185 192 199 195 186 189 184 184 179 172 170 184 214 209 153 55 78 110 149 188 176 191 189 191 196 199 202 203 204 203 206 207 204
16 26 34 38 40 55 80 94 110 191 183 184 180 185 187 184 183 183 176 175 170 168 187 190 175 156 140 150 165 202 180 178 187 188 192 194 196 201 203 200 206 205 205
21 27 32 38 43 46 49 56 48 76 136 153 169 173 179 179 179 179 175 177 177 172 181 182 152 160 163 155 172 218 174 168 174 182 185 188 188 191 195 196 199 204 211
23 25 29 36 39 41 45 49 40 44 76 119 149 145 156 153 162 169 173 178 177 175 164 164 152 150 162 174 186 205 183 168 155 172 178 178 175 175 175 175 178 187 200
26 28 31 33 32 31 31 29 29 32 43 50 85 122 135 138 148 156 157 156 155 148 130 135 144 153 157 169 159 174 143 116 138 148 153 149 140 129 127 121 121 131 145
28 28 32 34 31 31 25 16 15 26 46 46 53 82 101 122 141 151 146 146 144 137 133 137 145 151 155 168 147 150 143 113 113 121 114 115 108 96 84 79 77 80 87
30 30 33 33 30 31 21 13 2 15 42 50 50 68 82 89 96 111 124 138 143 141 145 147 146 144 157 145 162 160 141 111 79 91 96 95 91 79 66 58 60 64 73
28 29 34 33 33 27 15 17 9 5 34 53 50 57 85 83 86 91 107 112 123 137 143 141 148 152 154 139 133 134 133 126 101 81 94 82 77 72 58 55 60 69 72
26 28 29 30 32 23 16 14 6 4 47 51 50 50 60 68 67 78 93 92 82 76 97 134 135 139 133 130 128 119 117 111 110 120 100 87 77 76 61 53 64 70 71
29 28 28 28 29 25 19 13 4 22 59 60 52 45 57 60 53 59 88 82 70 51 51 76 90 83 83 87 107 121 120 104 94 86 95 98 87 84 74 58 63 70 70
27 31 27 29 30 25 20 17 10 25 54 65 63 52 48 52 48 56 86 95 88 77 72 80 87 91 83 71 78 96 108 118 112 91 75 105 123 112 92 74 69 74 73
25 40 38 38 38 33 27 26 21 28 40 51 61 61 49 46 47 53 81 101 99 96 102 98 89 90 80 67 68 92 121 126 123 117 122 113 146 139 114 95 100 86 73